User: anonymous   Login
Location: *
(51.1248°S, 108.4023°W)
Time: 10:41:50
(UTC+00:00)
Language:

CZ-2C R/B - Orbit

View from above orbital plane
View from above orbital plane
View from above satellite
View from above satellite

Ground track
Ground track

The orbit data is extracted from the following two-line orbital elements,

1 28480U 04046B   21260.79735703  .00000050  00000-0  34459-4 0  9992
2 28480  98.0521 265.3564 0140876 310.5489 223.5138 14.25763570875583
Epoch (UTC): 17 September 2021 19:08:11
Eccentricity: 0.0140876
inclination: 98.0521°
perigee height: 705 km
apogee height: 907 km
right ascension of ascending node: 265.3564°
argument of perigee: 310.5489°
revolutions per day: 14.25763570
mean anomaly at epoch: 223.5138°
orbit number at epoch: 87558

The dashed part of the orbit path shows where the satellite is in the earth's shadow,  

DLR